Regional Weather Roundup
Issued by NWS

Home | Current Version | Previous Version | Graphics & Text | Print | Product List | Glossary Off
Versions: 1 2 3 4 5 6 7 8 9 10 11 12 13 14 15 16 17 18 19 20 21 22 23 24 25 26 27 28 29 30 31 32 33 34 35 36 37 38 39 40 41 42 43 44 45 46 47 48 49 50

000
ASUS43 KTOP 191659
RWRKS

WEATHER ROUNDUP FOR KANSAS
NATIONAL WEATHER SERVICE GOODLAND KS
1100 AM CST FRI JAN 19 2018

NOTE:  "FAIR" INDICATES FEW OR NO CLOUDS BELOW 12,000 FEET WITH NO
SIGNIFICANT WEATHER AND/OR OBSTRUCTIONS TO VISIBILITY.

KSZ001>006-013>018-027>032-041>047-191800-
NORTHWEST KANSAS

CITY           SKY/WX    TMP DP  RH WIND       PRES   REMARKS
GOODLAND       PTSUNNY   58  17  20 SW15      29.74F
HAYS           CLOUDY    40  16  37 SW10      29.81F WCI  33
HILL CITY      CLOUDY    45  20  36 S6        29.76F
RUSSELL        CLOUDY    45  18  34 S18       29.79F
$$

KSZ061>065-074>080-084>089-191800-
SOUTHWEST KANSAS

CITY           SKY/WX    TMP DP  RH WIND       PRES   REMARKS
DODGE CITY     CLOUDY    47  16  29 SW15      29.83F
GARDEN CITY    CLOUDY    50  13  22 SW8       29.81F
GREAT BEND     CLOUDY    44  18  35 S10       29.84F
LIBERAL        CLOUDY    46  12  25 SW10      29.86S
$$

KSZ066>073-081>083-090>101-191800-
SOUTHEAST KANSAS

CITY           SKY/WX    TMP DP  RH WIND       PRES   REMARKS
CHANUTE        CLOUDY    41  22  46 S16       30.02S
COFFEYVILLE    CLOUDY    42  23  46 S15       30.05R
HUTCHINSON     CLOUDY    40  21  46 S14       29.88F WCI  32
MEDICINE LODGE   N/A     39  20  46 S9        29.91F
NEWTON         CLOUDY    40  20  44 S21       29.90F WCI  30
PARSONS        CLOUDY    40  22  48 S10       30.04S WCI  33
WICHITA INTL   CLOUDY    42  20  41 S16       29.94F
WICHITA JABRA  CLOUDY    41  20  43 S16       29.93F
WICHITA MCCONL CLOUDY    42  19  38 SW17      29.94F
WINFIELD       CLOUDY    43  22  43 S15       29.99F
$$

KSZ007>012-019>026-033>040-048>060-102>105-191800-
NORTHEAST KANSAS

CITY           SKY/WX    TMP DP  RH WIND       PRES   REMARKS
CONCORDIA      CLOUDY    41  23  48 S13       29.82F
EMPORIA        CLOUDY    41  21  44 S17       29.93F
LAWRENCE       CLOUDY    39  23  52 S14       29.94F WCI  31
MANHATTAN      CLOUDY    43  22  43 SW15      29.88F
OLATHE IND     CLOUDY    39  22  50 S15G25    29.95S WCI  31
OLATHE EXE     CLOUDY    37  21  52 S14G23    29.95S WCI  28
SALINA         CLOUDY    40  25  55 S8        29.88S
TOPEKA BILLARD CLOUDY    38  23  55 SW14G20   29.92F WCI  30
TOPEKA FORBES  CLOUDY    38  23  55 S18       29.91S WCI  28
$$



USA.gov is the U.S. government's official web portal to all federal, state and local government web resources and services.